QPF
0.00 0.00 0.00 0.00 0.00 0.00 0.00 0.00 0.00 0.00 0.00 0.00 0.00 0.00 0.00 0.00 0.00 0.00 0.00 0.00 0.00 0.00 0.00 0.00 0.00 0.00 0.00 0.00 0.00 0.00 0.00 0.00 0.01 0.00 0.01 0.01 0.02 0.01 0.00 0.00 0.00 0.02 0.05
0.00 0.00 0.00 0.00 0.00 0.00 0.00 0.00 0.00 0.00 0.00 0.00 0.00 0.00 0.00 0.00 0.00 0.01 0.00 0.00 0.00 0.00 0.00 0.00 0.00 0.00 0.00 0.00 0.00 0.00 0.00 0.00 0.00 0.00 0.00 0.00 0.00 0.01 0.01 0.01 0.00 0.01 0.02
0.00 0.00 0.00 0.00 0.00 0.00 0.00 0.00 0.00 0.00 0.00 0.00 0.00 0.00 0.00 0.00 0.01 0.01 0.01 0.00 0.02 0.04 0.02 0.00 0.00 0.00 0.00 0.00 0.00 0.00 0.00 0.00 0.00 0.00 0.00 0.00 0.00 0.00 0.01 0.00 0.00 0.00 0.00
0.00 0.00 0.00 0.00 0.00 0.00 0.00 0.00 0.00 0.00 0.00 0.00 0.00 0.00 0.00 0.00 0.00 0.00 0.00 0.01 0.02 0.04 0.05 0.06 0.10 0.10 0.04 0.01 0.01 0.01 0.01 0.00 0.00 0.00 0.01 0.01 0.01 0.00 0.01 0.00 0.01 0.01 0.00
0.00 0.00 0.00 0.00 0.00 0.00 0.00 0.00 0.00 0.00 0.00 0.00 0.00 0.00 0.00 0.00 0.00 0.00 0.00 0.00 0.01 0.01 0.01 0.03 0.07 0.12 0.08 0.07 0.06 0.01 0.01 0.01 0.00 0.00 0.01 0.01 0.01 0.01 0.00 0.00 0.00 0.01 0.00
0.00 0.00 0.00 0.00 0.00 0.00 0.00 0.00 0.00 0.00 0.00 0.00 0.00 0.00 0.00 0.00 0.01 0.00 0.01 0.01 0.02 0.02 0.01 0.03 0.03 0.01 0.03 0.05 0.06 0.01 0.01 0.01 0.01 0.00 0.01 0.02 0.01 0.00 0.01 0.00 0.01 0.02 0.00
0.00 0.00 0.00 0.00 0.00 0.00 0.00 0.00 0.00 0.00 0.00 0.00 0.00 0.00 0.01 0.01 0.01 0.01 0.01 0.01 0.02 0.01 0.00 0.00 0.01 0.01 0.01 0.01 0.01 0.01 0.02 0.01 0.01 0.00 0.01 0.01 0.01 0.02 0.01 0.03 0.02 0.01 0.00
0.00 0.00 0.00 0.00 0.00 0.00 0.00 0.00 0.00 0.00 0.00 0.00 0.00 0.01 0.01 0.02 0.02 0.02 0.01 0.01 0.00 0.00 0.00 0.01 0.00 0.03 0.06 0.08 0.04 0.01 0.02 0.02 0.02 0.01 0.01 0.00 0.01 0.03 0.04 0.03 0.02 0.01 0.00
0.00 0.00 0.00 0.00 0.00 0.00 0.00 0.00 0.00 0.00 0.01 0.01 0.02 0.03 0.05 0.05 0.08 0.02 0.03 0.04 0.01 0.01 0.00 0.01 0.04 0.07 0.11 0.11 0.09 0.01 0.01 0.01 0.02 0.02 0.01 0.00 0.01 0.01 0.02 0.03 0.03 0.02 0.01
0.00 0.00 0.00 0.00 0.00 0.00 0.00 0.00 0.00 0.01 0.03 0.03 0.05 0.04 0.06 0.03 0.03 0.02 0.04 0.08 0.07 0.03 0.06 0.05 0.10 0.14 0.16 0.16 0.12 0.00 0.00 0.01 0.01 0.01 0.01 0.01 0.01 0.01 0.01 0.01 0.02 0.02 0.01
0.00 0.00 0.00 0.00 0.00 0.00 0.00 0.00 0.00 0.01 0.05 0.09 0.10 0.06 0.05 0.06 0.04 0.05 0.05 0.03 0.03 0.03 0.01 0.01 0.04 0.12 0.14 0.10 0.06 0.02 0.00 0.01 0.01 0.01 0.01 0.00 0.00 0.00 0.01 0.02 0.02 0.01 0.00
0.00 0.00 0.00 0.00 0.00 0.00 0.00 0.00 0.00 0.01 0.05 0.08 0.15 0.17 0.13 0.12 0.13 0.09 0.10 0.09 0.07 0.05 0.02 0.02 0.04 0.05 0.04 0.02 0.02 0.01 0.00 0.00 0.01 0.00 0.00 0.00 0.00 0.00 0.01 0.01 0.01 0.00 0.00
0.00 0.00 0.00 0.00 0.00 0.00 0.00 0.00 0.00 0.00 0.03 0.05 0.11 0.07 0.06 0.15 0.17 0.18 0.14 0.14 0.03 0.00 0.00 0.00 0.01 0.03 0.03 0.01 0.01 0.01 0.00 0.00 0.01 0.01 0.01 0.00 0.00 0.00 0.01 0.00 0.00 0.00 0.00
0.00 0.00 0.00 0.00 0.00 0.00 0.00 0.00 0.00 0.00 0.01 0.00 0.02 0.08 0.08 0.12 0.06 0.11 0.09 0.08 0.05 0.00 0.00 0.00 0.00 0.01 0.01 0.00 0.00 0.00 0.00 0.00 0.01 0.01 0.01 0.00 0.00 0.00 0.00 0.00 0.00 0.00 0.00
0.00 0.00 0.00 0.00 0.00 0.00 0.00 0.00 0.00 0.00 0.00 0.00 0.00 0.00 0.00 0.01 0.01 0.03 0.06 0.07 0.03 0.01 0.00 0.00 0.00 0.00 0.00 0.00 0.00 0.00 0.00 0.00 0.00 0.00 0.00 0.00 0.00 0.00 0.00 0.00 0.00 0.00 0.00
0.00 0.00 0.00 0.00 0.00 0.00 0.00 0.00 0.00 0.00 0.00 0.00 0.00 0.00 0.00 0.00 0.00 0.00 0.01 0.04 0.03 0.01 0.00 0.00 0.00 0.00 0.00 0.00 0.00 0.00 0.00 0.00 0.00 0.00 0.00 0.00 0.00 0.00 0.00 0.00 0.00 0.00 0.00
0.00 0.00 0.00 0.00 0.00 0.00 0.00 0.00 0.00 0.00 0.00 0.00 0.00 0.00 0.00 0.00 0.00 0.00 0.00 0.00 0.00 0.00 0.00 0.00 0.00 0.00 0.00 0.00 0.00 0.00 0.00 0.00 0.00 0.00 0.00 0.00 0.00 0.00 0.00 0.00 0.00 0.00 0.00
0.00 0.00 0.00 0.00 0.00 0.00 0.00 0.00 0.00 0.00 0.00 0.00 0.00 0.00 0.00 0.00 0.00 0.00 0.00 0.00 0.00 0.00 0.00 0.00 0.00 0.00 0.00 0.00 0.00 0.00 0.00 0.00 0.00 0.00 0.00 0.00 0.00 0.00 0.00 0.00 0.00 0.00 0.00
0.00 0.00 0.00 0.00 0.00 0.00 0.00 0.00 0.00 0.00 0.00 0.00 0.00 0.00 0.00 0.00 0.00 0.00 0.00 0.00 0.00 0.00 0.00 0.00 0.00 0.00 0.00 0.00 0.00 0.00 0.00 0.00 0.00 0.00 0.00 0.00 0.00 0.00 0.00 0.00 0.00 0.00 0.00
0.00 0.00 0.00 0.00 0.00 0.00 0.00 0.00 0.00 0.00 0.00 0.00 0.00 0.00 0.00 0.00 0.00 0.00 0.00 0.00 0.00 0.00 0.00 0.00 0.00 0.00 0.00 0.00 0.00 0.00 0.00 0.00 0.00 0.00 0.00 0.00 0.00 0.00 0.00 0.00 0.00 0.00 0.00
0.00 0.00 0.00 0.00 0.00 0.00 0.00 0.00 0.00 0.00 0.00 0.00 0.00 0.00 0.00 0.00 0.00 0.00 0.00 0.00 0.00 0.00 0.00 0.00 0.00 0.00 0.00 0.00 0.00 0.00 0.00 0.00 0.00 0.00 0.00 0.00 0.00 0.00 0.00 0.00 0.00 0.00 0.00
0.00 0.00 0.00 0.00 0.00 0.00 0.00 0.00 0.00 0.00 0.00 0.00 0.00 0.00 0.00 0.00 0.00 0.00 0.00 0.00 0.00 0.00 0.00 0.00 0.00 0.00 0.00 0.00 0.00 0.00 0.00 0.00 0.00 0.00 0.00 0.00 0.00 0.00 0.00 0.00 0.00 0.00 0.00
0.00 0.00 0.00 0.00 0.00 0.00 0.00 0.00 0.00 0.00 0.00 0.00 0.00 0.00 0.00 0.00 0.00 0.00 0.00 0.00 0.00 0.00 0.00 0.00 0.00 0.00 0.00 0.00 0.00 0.00 0.00 0.00 0.00 0.00 0.00 0.00 0.00 0.00 0.00 0.00 0.00 0.00 0.00
0.00 0.00 0.00 0.00 0.00 0.00 0.00 0.00 0.00 0.00 0.00 0.00 0.00 0.00 0.00 0.00 0.00 0.00 0.00 0.00 0.00 0.00 0.00 0.00 0.00 0.00 0.00 0.00 0.00 0.00 0.00 0.00 0.00 0.00 0.00 0.00 0.00 0.00 0.00 0.00 0.00 0.00 0.00
0.00 0.00 0.00 0.00 0.00 0.00 0.00 0.00 0.00 0.00 0.00 0.00 0.00 0.00 0.00 0.00 0.00 0.00 0.00 0.00 0.00 0.00 0.00 0.00 0.00 0.00 0.00 0.00 0.00 0.00 0.00 0.00 0.00 0.00 0.00 0.00 0.00 0.00 0.00 0.00 0.00 0.00 0.00
0.00 0.00 0.00 0.00 0.00 0.00 0.00 0.00 0.00 0.00 0.00 0.00 0.00 0.00 0.00 0.00 0.00 0.00 0.00 0.00 0.00 0.00 0.00 0.00 0.00 0.00 0.00 0.00 0.00 0.00 0.00 0.00 0.00 0.00 0.00 0.00 0.00 0.00 0.00 0.00 0.00 0.00 0.00
MSLP
1006.74 1006.95 1007.36 1007.71 1007.82 1007.73 1007.77 1007.65 1007.26 1006.92 1006.67 1006.01 1005.07 1004.16 1003.85 1004.40 1004.54 1004.43 1005.01 1005.44 1005.98 1006.69 1007.56 1008.22 1009.12 1009.69 1010.08 1010.47 1011.15 1011.94 1012.24 1012.45 1012.83 1013.46 1013.99 1014.31 1014.38 1014.39 1014.77 1014.80 1015.15 1015.51 1015.55
1006.77 1007.08 1007.30 1007.50 1007.80 1007.92 1007.95 1007.84 1007.46 1007.06 1006.74 1006.13 1005.36 1004.04 1003.13 1003.24 1003.77 1003.92 1004.06 1004.51 1005.59 1006.15 1006.71 1007.56 1008.34 1009.07 1009.64 1010.12 1010.61 1011.27 1011.94 1012.13 1012.61 1013.01 1013.63 1014.22 1014.69 1014.23 1014.49 1014.81 1015.17 1015.80 1015.38
1007.30 1007.49 1007.73 1007.94 1008.03 1007.95 1008.01 1007.99 1007.68 1007.35 1006.88 1006.29 1005.34 1004.48 1003.13 1002.57 1002.94 1003.42 1003.61 1003.95 1004.88 1005.55 1006.05 1006.90 1007.86 1008.67 1009.10 1009.64 1010.00 1010.82 1011.44 1011.67 1012.20 1012.44 1012.63 1013.34 1013.33 1014.02 1014.40 1014.53 1014.74 1015.04 1015.14
1007.75 1007.93 1008.07 1008.37 1008.60 1008.57 1008.65 1008.41 1007.95 1007.37 1006.83 1006.29 1005.14 1004.07 1002.79 1001.41 1001.58 1001.99 1002.55 1003.18 1003.98 1004.83 1005.45 1005.82 1006.67 1007.45 1008.44 1009.09 1009.56 1010.41 1010.90 1011.31 1011.54 1012.20 1011.93 1012.14 1012.42 1013.06 1014.06 1014.54 1014.50 1014.82 1015.24
1008.26 1008.30 1008.43 1008.73 1008.80 1009.03 1009.03 1008.67 1008.08 1007.49 1006.84 1006.24 1005.60 1004.34 1002.69 1001.17 1000.82 1001.25 1002.04 1002.78 1003.14 1003.71 1004.59 1004.73 1004.75 1005.20 1006.79 1007.94 1008.70 1009.50 1010.01 1010.58 1011.06 1011.28 1011.62 1012.14 1012.27 1012.09 1012.48 1013.55 1014.13 1014.45 1014.79
1008.52 1008.59 1008.81 1008.90 1008.83 1009.05 1009.22 1009.00 1008.04 1007.43 1006.77 1005.88 1004.98 1003.81 1002.30 1001.05 1000.01 1000.48 1001.41 1002.00 1002.42 1002.88 1003.62 1004.04 1004.67 1005.20 1005.53 1006.16 1007.51 1008.29 1009.04 1009.74 1010.39 1010.79 1011.12 1011.33 1011.44 1011.66 1012.08 1012.53 1013.33 1013.72 1014.23
1008.99 1008.97 1008.92 1008.91 1008.98 1009.19 1009.10 1008.80 1007.92 1007.37 1006.45 1005.34 1004.18 1002.74 1001.27 1000.40 999.59 999.95 1000.56 1001.47 1001.92 1002.34 1002.83 1003.30 1003.97 1004.27 1004.63 1005.49 1007.11 1006.83 1008.23 1008.96 1009.59 1010.04 1010.51 1010.94 1011.03 1011.20 1011.59 1011.81 1012.43 1013.08 1013.82
1009.46 1009.51 1009.61 1009.64 1009.60 1009.41 1009.09 1008.64 1007.61 1006.94 1005.75 1004.63 1003.22 1001.71 999.71 999.13 999.18 999.69 1000.21 1000.80 1001.22 1001.52 1002.21 1003.12 1003.33 1003.71 1003.78 1003.99 1005.79 1006.39 1007.50 1008.16 1008.88 1009.38 1009.94 1010.31 1010.54 1010.62 1011.22 1011.38 1011.70 1012.30 1012.95
1009.93 1010.10 1010.09 1010.15 1010.10 1009.57 1009.27 1009.07 1007.93 1007.22 1006.15 1004.38 1002.68 1000.62 998.45 998.36 998.88 999.33 999.85 1000.18 1000.12 1000.40 1001.55 1002.65 1003.43 1003.76 1005.12 1004.81 1005.71 1006.35 1006.91 1007.70 1008.38 1008.79 1009.23 1009.61 1009.90 1010.39 1010.66 1010.87 1011.09 1011.21 1011.93
1010.43 1010.60 1010.63 1010.80 1010.63 1010.01 1009.71 1009.40 1008.44 1007.77 1006.13 1004.43 1002.77 1000.62 998.79 998.75 998.84 999.02 999.22 999.78 999.70 1000.32 1001.17 1002.35 1003.02 1003.64 1004.63 1005.31 1005.36 1005.99 1006.74 1007.44 1007.83 1008.19 1008.76 1008.93 1009.12 1009.68 1010.05 1010.31 1010.58 1010.78 1011.03
1011.09 1011.32 1011.35 1011.31 1010.91 1010.43 1010.23 1009.67 1008.29 1007.59 1006.38 1005.05 1003.32 1001.54 999.53 999.07 998.96 998.83 999.19 999.79 1000.09 1000.33 1000.82 1001.56 1002.72 1003.76 1004.34 1004.92 1005.00 1005.53 1006.13 1006.66 1007.31 1007.63 1008.02 1008.22 1008.80 1009.03 1009.29 1009.38 1009.32 1009.80 1010.30
1012.09 1011.96 1011.91 1011.61 1011.43 1011.00 1010.72 1009.94 1009.33 1008.57 1007.61 1006.25 1004.53 1002.89 1001.26 1000.02 999.48 999.41 999.15 999.63 1000.13 1000.46 1000.97 1000.93 1002.07 1002.95 1004.11 1004.36 1004.73 1005.08 1005.55 1006.10 1006.67 1007.10 1007.55 1007.70 1008.08 1008.22 1008.50 1008.65 1008.93 1009.32 1009.70
1012.73 1012.63 1012.45 1012.44 1012.22 1011.78 1011.24 1010.50 1009.98 1009.48 1008.40 1007.05 1005.20 1004.02 1002.93 1001.72 1000.91 999.93 999.58 999.49 999.80 1000.27 1000.86 1001.49 1000.63 1001.56 1003.42 1003.74 1004.50 1005.01 1005.41 1005.89 1006.23 1006.58 1006.86 1007.01 1007.25 1007.48 1007.75 1008.05 1008.30 1008.81 1009.28
1013.48 1013.77 1013.47 1013.21 1012.98 1012.53 1011.70 1011.27 1010.89 1010.39 1009.12 1008.51 1006.64 1005.39 1003.96 1003.27 1002.51 1001.38 999.99 1000.06 1000.24 1000.45 1000.70 1001.00 1000.67 1001.65 1003.20 1004.04 1004.50 1005.02 1005.35 1005.68 1005.72 1005.79 1006.06 1006.24 1006.64 1006.82 1007.03 1007.25 1007.36 1008.00 1008.60
1014.63 1014.80 1014.50 1014.05 1013.89 1013.29 1012.45 1012.13 1011.67 1011.08 1010.38 1008.89 1006.73 1006.32 1005.22 1003.94 1003.27 1002.52 1002.45 1001.99 1001.08 1000.80 1001.26 1001.49 1002.32 1002.60 1003.29 1004.54 1004.89 1004.96 1005.10 1005.34 1005.72 1006.31 1006.74 1007.18 1007.17 1006.60 1006.24 1006.43 1006.75 1007.24 1007.83
1015.71 1015.81 1015.59 1015.14 1015.07 1014.12 1013.56 1013.16 1012.64 1012.13 1011.14 1009.86 1009.21 1008.43 1006.80 1005.91 1005.30 1004.41 1004.06 1004.09 1003.13 1003.27 1002.98 1002.70 1003.14 1003.80 1004.57 1005.59 1005.60 1005.35 1005.41 1005.76 1006.23 1006.82 1007.27 1007.49 1007.30 1007.16 1006.18 1006.17 1006.17 1006.53 1007.08
1016.85 1016.94 1016.65 1016.38 1016.00 1015.15 1014.77 1014.12 1013.74 1013.12 1012.15 1011.29 1010.43 1009.30 1008.39 1007.44 1006.66 1006.10 1005.53 1005.82 1005.07 1005.42 1005.14 1004.25 1004.17 1004.86 1005.70 1006.14 1005.94 1006.12 1006.50 1006.84 1007.27 1007.48 1007.69 1007.82 1008.05 1007.92 1007.62 1006.86 1007.30 1007.71 1007.75
1018.07 1017.88 1017.70 1017.34 1016.71 1016.20 1015.76 1015.20 1014.61 1014.00 1013.23 1012.37 1011.42 1010.56 1009.54 1008.88 1008.45 1008.16 1007.75 1007.18 1006.78 1006.54 1005.56 1005.81 1005.80 1006.00 1006.84 1007.03 1007.18 1007.37 1007.55 1008.02 1008.41 1008.36 1008.52 1008.70 1008.62 1008.53 1008.44 1007.76 1008.15 1009.15 1009.19
1018.97 1018.99 1018.65 1018.07 1017.62 1017.09 1016.62 1015.95 1015.46 1014.94 1014.25 1013.53 1012.88 1012.25 1011.63 1010.84 1010.45 1009.76 1009.39 1008.84 1008.35 1007.81 1008.04 1007.87 1008.13 1007.13 1007.83 1008.19 1008.05 1008.08 1008.51 1009.00 1009.32 1009.46 1009.29 1009.56 1009.47 1009.40 1009.13 1009.20 1009.41 1010.23 1010.85
1019.83 1019.53 1019.21 1018.79 1018.16 1017.93 1017.37 1016.78 1016.33 1015.92 1015.40 1014.93 1014.35 1013.72 1012.99 1012.41 1011.92 1011.56 1011.06 1010.68 1010.00 1009.56 1009.62 1009.14 1010.14 1009.19 1009.33 1009.28 1008.92 1009.17 1009.44 1009.96 1010.49 1010.64 1010.47 1010.51 1010.52 1010.30 1010.20 1010.24 1010.84 1011.23 1012.32
1020.46 1020.11 1019.66 1019.10 1018.80 1018.41 1017.96 1017.51 1017.23 1016.87 1016.77 1016.04 1015.41 1014.85 1014.23 1013.69 1013.27 1012.83 1012.20 1011.72 1011.24 1010.76 1010.37 1010.91 1011.31 1011.12 1010.78 1010.81 1010.36 1010.49 1010.64 1011.26 1011.63 1011.90 1011.89 1011.89 1011.58 1011.48 1011.47 1011.62 1012.11 1012.57 1013.45
1020.87 1020.43 1019.96 1019.59 1019.37 1018.91 1018.34 1018.17 1017.85 1017.87 1017.43 1016.95 1016.28 1015.94 1015.43 1014.93 1014.35 1013.78 1013.40 1012.92 1012.60 1012.24 1012.14 1012.40 1012.29 1012.57 1013.01 1012.84 1012.00 1012.15 1012.26 1012.52 1012.73 1013.34 1013.53 1013.42 1013.08 1012.77 1012.87 1013.12 1013.86 1013.89 1014.06
1021.23 1020.70 1020.33 1020.19 1020.13 1019.75 1019.39 1018.75 1018.30 1018.11 1017.76 1017.34 1017.05 1016.91 1016.51 1016.00 1015.49 1014.95 1014.54 1014.06 1013.93 1013.65 1013.77 1013.79 1013.90 1013.90 1013.85 1014.36 1013.88 1013.64 1014.03 1014.07 1014.32 1014.48 1015.05 1014.86 1014.54 1014.38 1014.37 1014.68 1014.95 1015.05 1015.49
1022.17 1021.58 1021.15 1021.07 1020.85 1020.54 1020.22 1019.69 1019.03 1018.30 1018.04 1017.84 1017.78 1017.66 1017.33 1017.13 1016.88 1016.12 1015.88 1015.81 1015.58 1015.56 1015.31 1015.11 1015.24 1015.40 1015.43 1015.16 1014.58 1015.02 1015.62 1015.15 1015.44 1015.41 1015.88 1016.13 1015.67 1015.40 1015.79 1015.88 1016.13 1016.57 1016.87
1023.17 1022.93 1022.65 1022.34 1021.96 1021.65 1021.28 1020.70 1020.00 1019.20 1018.69 1018.63 1018.50 1018.26 1018.13 1018.04 1017.98 1018.24 1017.99 1017.59 1017.66 1017.18 1016.85 1016.98 1017.04 1016.86 1016.76 1016.80 1016.57 1016.56 1016.57 1016.39 1016.43 1016.46 1016.65 1016.65 1016.52 1016.59 1016.95 1017.25 1017.43 1017.70 1018.04
1024.36 1024.13 1024.01 1023.79 1023.52 1022.99 1022.57 1022.00 1021.15 1020.49 1019.88 1019.51 1019.33 1019.44 1019.08 1018.99 1018.79 1018.73 1019.07 1019.58 1019.44 1019.15 1018.86 1018.62 1018.31 1018.45 1018.27 1018.00 1017.65 1017.85 1017.94 1017.65 1017.46 1017.26 1017.30 1017.52 1017.62 1017.69 1017.99 1018.31 1018.64 1018.89 1019.01
Thickness
5629 5631 5629 5628 5629 5631 5632 5633 5636 5639 5643 5649 5656 5661 5663 5661 5663 5669 5668 5669 5669 5666 5660 5659 5653 5650 5649 5647 5644 5639 5640 5640 5637 5629 5624 5621 5623 5624 5621 5621 5617 5617 5617
5618 5619 5620 5620 5619 5620 5621 5622 5622 5625 5627 5633 5638 5648 5655 5656 5655 5655 5657 5662 5658 5659 5655 5653 5648 5645 5642 5640 5639 5636 5632 5634 5631 5624 5617 5612 5613 5619 5618 5615 5613 5610 5613
5603 5606 5606 5606 5608 5609 5608 5609 5608 5608 5611 5613 5620 5625 5635 5642 5643 5644 5647 5653 5651 5650 5652 5646 5640 5636 5635 5633 5634 5630 5627 5627 5624 5623 5619 5609 5615 5610 5610 5611 5612 5612 5614
5593 5594 5595 5593 5592 5592 5591 5592 5593 5593 5592 5594 5601 5610 5621 5634 5640 5640 5644 5645 5643 5644 5643 5643 5640 5635 5629 5628 5629 5624 5623 5622 5620 5616 5621 5620 5619 5611 5605 5604 5607 5607 5607
5581 5582 5582 5581 5580 5579 5576 5575 5576 5575 5574 5576 5581 5593 5610 5629 5636 5635 5634 5633 5637 5641 5637 5640 5637 5628 5633 5628 5629 5625 5622 5619 5616 5616 5614 5611 5613 5617 5614 5605 5603 5604 5607
5571 5572 5572 5571 5571 5567 5562 5558 5559 5560 5563 5567 5571 5584 5602 5617 5630 5632 5627 5628 5631 5635 5633 5634 5628 5628 5635 5635 5628 5627 5623 5619 5614 5613 5613 5612 5611 5612 5609 5610 5605 5605 5605
5559 5561 5563 5562 5560 5553 5549 5545 5547 5549 5555 5560 5567 5583 5601 5613 5625 5628 5625 5622 5624 5626 5629 5630 5627 5631 5633 5630 5622 5631 5622 5617 5612 5612 5610 5608 5610 5610 5608 5608 5607 5604 5600
5547 5548 5547 5546 5544 5540 5539 5537 5540 5544 5551 5558 5569 5583 5608 5617 5622 5621 5620 5620 5621 5626 5626 5622 5626 5627 5629 5631 5625 5626 5620 5616 5612 5610 5608 5607 5608 5608 5604 5606 5605 5603 5600
5534 5533 5533 5531 5530 5529 5527 5524 5529 5535 5540 5553 5566 5588 5614 5617 5615 5617 5615 5618 5623 5626 5620 5617 5615 5615 5608 5617 5617 5615 5616 5612 5608 5608 5606 5607 5607 5604 5603 5603 5604 5605 5599
5521 5519 5518 5516 5515 5516 5515 5514 5519 5522 5534 5547 5560 5583 5605 5608 5611 5612 5614 5613 5619 5621 5619 5612 5609 5609 5605 5608 5611 5610 5610 5605 5605 5606 5603 5606 5606 5602 5601 5601 5599 5600 5600
5506 5504 5503 5503 5504 5506 5504 5504 5514 5517 5526 5537 5552 5568 5594 5600 5605 5608 5609 5607 5610 5615 5615 5610 5606 5603 5604 5604 5606 5608 5606 5604 5601 5603 5603 5604 5600 5600 5599 5599 5602 5600 5598
5488 5491 5491 5492 5492 5494 5493 5497 5500 5504 5511 5522 5538 5551 5568 5585 5594 5596 5601 5602 5603 5605 5606 5611 5607 5605 5601 5601 5603 5604 5603 5602 5599 5599 5598 5599 5598 5600 5597 5596 5595 5593 5595
5475 5477 5478 5477 5478 5480 5482 5486 5489 5490 5498 5511 5527 5537 5547 5561 5571 5587 5592 5596 5597 5598 5599 5600 5612 5612 5598 5600 5597 5597 5597 5596 5596 5596 5596 5597 5597 5597 5594 5591 5588 5587 5587
5458 5455 5460 5462 5465 5468 5473 5474 5474 5475 5485 5491 5511 5521 5536 5544 5552 5566 5580 5585 5588 5590 5593 5596 5605 5603 5594 5591 5593 5591 5591 5591 5594 5596 5597 5597 5595 5593 5590 5586 5587 5585 5584
5434 5437 5443 5446 5451 5454 5460 5462 5462 5465 5471 5482 5501 5508 5522 5534 5534 5549 5553 5563 5576 5584 5585 5587 5585 5586 5585 5580 5582 5584 5587 5589 5589 5584 5581 5577 5578 5584 5586 5585 5583 5582 5581
5416 5420 5424 5429 5432 5439 5444 5447 5449 5451 5459 5471 5476 5483 5499 5511 5520 5530 5535 5538 5548 5553 5561 5568 5570 5569 5567 5562 5565 5572 5577 5576 5577 5573 5568 5567 5569 5569 5574 5577 5580 5581 5582
5396 5399 5407 5411 5417 5424 5428 5433 5434 5439 5446 5454 5462 5473 5482 5493 5504 5511 5518 5515 5525 5528 5534 5547 5551 5552 5549 5550 5556 5557 5559 5558 5557 5558 5559 5558 5555 5556 5557 5565 5564 5562 5564
5378 5384 5391 5397 5404 5409 5413 5418 5424 5427 5434 5441 5450 5458 5468 5475 5482 5487 5492 5499 5505 5507 5521 5524 5529 5534 5532 5535 5538 5540 5543 5541 5541 5544 5544 5542 5544 5545 5547 5552 5550 5545 5547
5369 5370 5377 5385 5391 5396 5402 5408 5412 5417 5422 5428 5434 5440 5447 5455 5460 5468 5472 5479 5487 5495 5497 5500 5502 5517 5517 5517 5523 5528 5527 5525 5526 5528 5531 5528 5530 5532 5536 5536 5535 5530 5526
5356 5363 5368 5374 5383 5386 5393 5399 5402 5404 5408 5412 5418 5425 5432 5438 5443 5448 5453 5457 5466 5474 5478 5484 5479 5491 5493 5499 5508 5511 5512 5511 5509 5510 5514 5514 5514 5518 5521 5522 5520 5517 5509
5349 5356 5363 5371 5375 5381 5385 5389 5392 5394 5395 5401 5406 5411 5418 5424 5429 5434 5440 5445 5451 5459 5465 5464 5462 5466 5473 5477 5486 5489 5492 5490 5491 5491 5494 5496 5499 5501 5503 5503 5500 5499 5493
5348 5355 5362 5367 5371 5377 5383 5383 5384 5384 5388 5393 5397 5399 5403 5408 5415 5421 5426 5432 5436 5442 5447 5447 5450 5448 5449 5453 5463 5465 5468 5469 5471 5469 5470 5474 5478 5481 5483 5482 5478 5479 5480
5349 5356 5361 5363 5364 5368 5371 5376 5380 5381 5383 5387 5389 5389 5392 5396 5400 5405 5410 5418 5420 5425 5426 5428 5430 5431 5435 5432 5437 5442 5441 5444 5445 5447 5445 5449 5454 5458 5460 5459 5458 5460 5457
5341 5349 5354 5355 5357 5360 5362 5366 5371 5377 5379 5381 5381 5381 5383 5384 5385 5392 5394 5394 5399 5401 5404 5408 5409 5409 5409 5413 5421 5420 5417 5423 5423 5426 5423 5423 5430 5436 5435 5437 5436 5435 5434
5335 5338 5341 5344 5347 5350 5352 5355 5360 5366 5370 5371 5371 5373 5374 5374 5374 5370 5372 5376 5376 5379 5383 5382 5382 5385 5387 5388 5391 5394 5396 5399 5400 5402 5403 5406 5409 5412 5411 5411 5412 5411 5409
5325 5327 5329 5331 5333 5338 5340 5343 5349 5353 5356 5359 5359 5356 5360 5360 5361 5362 5358 5351 5353 5356 5358 5359 5362 5360 5362 5365 5369 5368 5369 5375 5378 5381 5383 5383 5384 5386 5386 5385 5384 5384 5385